382P/Larson (2022)

Japanese version
Home page
Updated on September 18, 2021

---------------------------------------------------------------------

* Profile

Designation 382P/2019 K3
Recovery Date May 29 and 31, 2019
Magnitude 21.9 mag, 22.0 mag
Recoverer E. Schwab (Egelsbach, Germany), G. V. Williams (Pan-STARRS1 survey)

* Pictures

* Orbital Elements

Epoch 2022 Mar. 2.0 TT = JDT 2459640.5
T 2022 Feb. 17.40835 TT                                 Rudenko
q   4.4197530            (2000.0)            P               Q
n   0.05987762     Peri.  170.98568     +0.96485789     +0.26229927
a   6.4708253      Node   173.74063     -0.24920009     +0.93240077
e   0.3169723      Incl.    8.31058     -0.08335808     +0.24865216
P  16.5
From 274 observations 2007 Sept. 4-2021 Apr. 13, mean residual 1".0.

* Magnitudes Graph

        m1 = 6.0 + 5 log d + 15.0 log r

---------------------------------------------------------------------

The orbital elements are published on M.P.E.C. 2021-J28.
The magnitudes graphs are made with Comet for Windows.

---------------------------------------------------------------------

Copyright(C) Seiichi Yoshida (comet@aerith.net). All rights reserved.